Location: Ostrava
(49.8330°N, 18.2830°E)
Time: 22:37:55
(UTC+02:00)

Transit 2A - All Passes

Search period start: 24 April 2018 00:00
Search period end: 04 May 2018 00:00
Orbit: 598 x 961 km, 66.7° (Epoch: 24 April)

Date Brightness Start Highest point End Pass type
(mag) Time Alt. Az. Time Alt. Az. Time Alt. Az.
24 Apr - 06:56:36 10° S 07:02:07 38° ESE 07:07:13 10° NE daylight
24 Apr - 08:39:33 10° WSW 08:45:18 49° NW 08:50:32 10° NNE daylight
24 Apr - 10:26:00 10° WNW 10:29:42 18° NNW 10:33:11 10° NNE daylight
24 Apr - 12:13:07 10° NNW 12:15:04 12° N 12:16:59 10° NNE daylight
24 Apr - 13:56:34 10° NNW 14:00:18 21° NNE 14:03:49 10° ENE daylight
24 Apr - 15:39:27 10° NW 15:44:20 81° NE 15:48:47 10° SE daylight
24 Apr - 17:24:06 10° WNW 17:26:42 15° WSW 17:29:13 10° SW daylight
25 Apr - 06:23:09 10° S 06:28:11 28° ESE 06:32:53 10° NE daylight
25 Apr - 08:05:14 10° SW 08:11:08 64° NW 08:16:31 10° NNE daylight
25 Apr - 09:51:09 10° WNW 09:55:18 20° NNW 09:59:12 10° NNE daylight
25 Apr - 11:38:36 10° NNW 11:40:33 12° N 11:42:27 10° NNE daylight
25 Apr - 13:22:35 10° NNW 13:25:55 17° NNE 13:29:03 10° ENE daylight
25 Apr - 15:05:23 10° NNW 15:10:13 58° NE 15:14:37 10° SE daylight
25 Apr - 16:49:20 10° WNW 16:52:54 22° WSW 16:56:17 10° SSW daylight
26 Apr - 05:50:00 10° SSE 05:54:18 21° ESE 05:58:22 10° ENE daylight
26 Apr - 07:31:02 10° SW 07:37:01 84° NW 07:42:28 10° NE daylight
26 Apr - 09:16:20 10° W 09:20:57 24° NNW 09:25:13 10° NNE daylight
26 Apr - 11:03:51 10° NNW 11:06:02 12° N 11:08:09 10° NNE daylight
26 Apr - 12:48:35 10° NNW 12:51:29 15° NNE 12:54:14 10° NE daylight
26 Apr - 14:31:22 10° NNW 14:36:02 43° NE 14:40:19 10° ESE daylight
26 Apr - 16:14:54 10° NW 16:19:02 31° WSW 16:22:56 10° S daylight
27 Apr - 05:17:17 10° SE 05:20:28 15° ESE 05:23:31 10° ENE daylight
27 Apr - 06:57:00 10° SSW 07:02:58 75° ESE 07:08:24 10° NE daylight
27 Apr - 08:41:39 10° W 08:46:39 29° NW 08:51:16 10° NNE daylight
27 Apr - 10:28:59 10° NW 10:31:33 13° NNW 10:34:00 10° NNE daylight
27 Apr - 12:14:32 10° NNW 12:17:01 13° NNE 12:19:23 10° NE daylight
27 Apr - 13:57:22 10° NNW 14:01:48 33° NE 14:05:54 10° ESE daylight
27 Apr - 15:40:37 10° NW 15:45:08 45° WSW 15:49:20 10° S daylight
28 Apr - 04:46:23 10° ESE 04:46:41 10° ESE 04:46:58 10° E visible
28 Apr - 06:23:07 10° SSW 06:28:56 56° ESE 06:34:15 10° NE daylight
28 Apr - 08:07:03 10° WSW 08:12:23 36° NW 08:17:18 10° NNE daylight
28 Apr - 09:54:03 10° NW 09:57:04 15° NNW 09:59:56 10° NNE daylight
28 Apr - 11:40:25 10° NNW 11:42:31 12° N 11:44:32 10° NNE daylight
28 Apr - 13:23:24 10° NNW 13:27:32 26° NE 13:31:21 10° E daylight
28 Apr - 15:06:26 10° NW 15:11:09 66° WSW 15:15:31 10° SSE daylight
29 Apr - 05:49:24 10° S 05:54:57 41° ESE 06:00:04 10° NE daylight
29 Apr - 07:32:34 10° WSW 07:38:10 46° NW 07:43:18 10° NNE daylight
29 Apr - 09:19:08 10° WNW 09:22:37 17° NNW 09:25:55 10° NNE daylight
29 Apr - 11:06:10 10° NNW 11:08:00 12° N 11:09:48 10° NNE daylight
29 Apr - 12:49:26 10° NNW 12:53:11 21° NNE 12:56:43 10° E daylight
29 Apr - 14:32:18 10° NW 14:37:08 87° NE 14:41:33 10° SE daylight
29 Apr - 16:17:14 10° WNW 16:19:26 13° WSW 16:21:37 10° SW daylight
30 Apr - 05:15:55 10° S 05:21:00 30° ESE 05:25:45 10° NE daylight
30 Apr - 06:58:12 10° SW 07:04:01 60° NW 07:09:18 10° NNE daylight
30 Apr - 08:44:15 10° WNW 08:48:13 19° NNW 08:51:56 10° NNE daylight
30 Apr - 10:31:42 10° NNW 10:33:29 12° N 10:35:14 10° NNE daylight
30 Apr - 12:15:28 10° NNW 12:18:48 18° NNE 12:21:57 10° ENE daylight
30 Apr - 13:58:15 10° NNW 14:03:02 62° NE 14:07:26 10° SE daylight
30 Apr - 15:42:19 10° WNW 15:45:39 20° WSW 15:48:50 10° SSW daylight
01 May - 04:42:41 10° SSE 04:47:07 22° ESE 04:51:17 10° ENE visible
01 May - 06:23:58 10° SW 06:29:54 79° NW 06:35:16 10° NE daylight
01 May - 08:09:26 10° W 08:13:51 23° NNW 08:17:59 10° NNE daylight
01 May - 09:57:00 10° NNW 09:58:58 12° N 10:00:53 10° NNE daylight
01 May - 11:41:29 10° NNW 11:44:23 15° NNE 11:47:08 10° NE daylight
01 May - 13:24:14 10° NNW 13:28:52 45° NE 13:33:09 10° ESE daylight
01 May - 15:07:49 10° NW 15:11:49 28° WSW 15:15:35 10° S daylight
02 May - 04:09:52 10° SE 04:13:16 16° ESE 04:16:32 10° ENE visible
02 May - 05:49:54 10° SSW 05:55:49 80° SE 06:01:12 10° NE daylight
02 May - 07:34:42 10° W 07:39:32 28° NW 07:44:01 10° NNE daylight
02 May - 09:22:09 10° NW 09:24:28 13° NNW 09:26:42 10° NNE daylight
02 May - 11:07:28 10° NNW 11:09:55 13° NNE 11:12:16 10° NE daylight
02 May - 12:50:14 10° NNW 12:54:39 34° NE 12:58:45 10° ESE daylight
02 May - 14:33:30 10° NW 14:37:54 41° WSW 14:42:01 10° S daylight
03 May - 03:38:04 10° ESE 03:39:28 11° ESE 03:40:51 10° E visible
03 May - 05:15:58 10° SSW 05:21:47 59° ESE 05:27:04 10° NE daylight
03 May - 07:00:04 10° WSW 07:05:16 34° NW 07:10:03 10° NNE daylight
03 May - 08:47:13 10° NW 08:50:00 14° NNW 08:52:39 10° NNE daylight
03 May - 10:33:24 10° NNW 10:35:26 12° N 10:37:24 10° NE daylight
03 May - 12:16:15 10° NNW 12:20:23 27° NE 12:24:14 10° E daylight
03 May - 13:59:18 10° NW 14:03:57 61° WSW 14:08:15 10° SSE daylight
